Time,TemperatureF,DewpointF,PressureIn,WindDirection,WindDirectionDegrees,WindSpeedMPH,WindSpeedGustMPH,Humidity,HourlyPrecipIn,Conditions,Clouds,dailyrainin,SoftwareType,DateUTC
2013-08-12 00:57:00,54.7,50.9,30.03,NW,315,0.0,0.0,87,0.00,,,0.00,WUHU21623XXSP,2013-08-12 07:57:00,
2013-08-12 01:57:00,55.0,51.8,30.03,NW,315,0.0,0.0,89,0.00,,,0.00,WUHU21623XXSP,2013-08-12 08:57:00,
2013-08-12 02:57:00,55.9,52.7,30.03,NW,315,0.0,0.0,89,0.00,,,0.00,WUHU21623XXSP,2013-08-12 09:57:00,
2013-08-12 03:57:00,56.8,53.6,30.05,WSW,248,0.0,0.0,89,0.00,,,0.00,WUHU21623XXSP,2013-08-12 10:57:00,
2013-08-12 04:57:00,57.0,53.8,30.06,WSW,248,0.0,0.0,89,0.00,,,0.00,WUHU21623XXSP,2013-08-12 11:57:00,
2013-08-12 05:57:00,57.4,54.2,30.06,WSW,248,0.0,0.0,89,0.00,,,0.00,WUHU21623XXSP,2013-08-12 12:57:00,
2013-08-12 06:57:00,57.4,53.9,30.07,NNW,338,0.0,0.0,88,0.00,,,0.00,WUHU21623XXSP,2013-08-12 13:57:00,
2013-08-12 07:57:00,58.3,54.1,30.08,SSW,203,0.0,0.0,86,0.00,,,0.00,WUHU21623XXSP,2013-08-12 14:57:00,
2013-08-12 08:57:00,60.4,56.2,30.09,SSW,203,0.0,0.0,86,0.00,,,0.00,WUHU21623XXSP,2013-08-12 15:57:00,
2013-08-12 09:57:00,65.1,59.2,30.08,SSE,158,0.0,0.0,81,0.00,,,0.00,WUHU21623XXSP,2013-08-12 16:57:00,
2013-08-12 10:57:00,72.5,60.7,30.08,ESE,113,0.0,0.0,66,0.00,,,0.00,WUHU21623XXSP,2013-08-12 17:57:00,
2013-08-12 11:57:00,82.8,63.5,30.06,East,90,0.0,0.0,52,0.00,,,0.00,WUHU21623XXSP,2013-08-12 18:57:00,
2013-08-12 12:57:00,79.5,59.3,30.05,WNW,293,0.0,0.0,50,0.00,,,0.00,WUHU21623XXSP,2013-08-12 19:57:00,
2013-08-12 13:57:00,83.3,61.0,30.04,WNW,293,0.0,0.0,47,0.00,,,0.00,WUHU21623XXSP,2013-08-12 20:57:00,
2013-08-12 14:57:00,88.0,62.0,30.03,SSE,158,0.0,0.0,42,0.00,,,0.00,WUHU21623XXSP,2013-08-12 21:57:00,
2013-08-12 15:57:00,86.7,60.9,30.02,SW,225,0.0,0.0,42,0.00,,,0.00,WUHU21623XXSP,2013-08-12 22:57:00,
2013-08-12 16:27:00,84.9,59.9,30.02,West,270,0.0,0.0,43,0.00,,,0.00,WUHU21623XXSP,2013-08-12 23:27:00,
2013-08-12 16:28:00,84.9,59.9,30.02,SW,225,0.0,0.0,43,0.00,,,5.24,WUHU21623XXSP,2013-08-12 23:28:00,
2013-08-12 16:33:00,85.1,59.5,30.01,SSE,157,0.0,0.0,42,0.00,,,5.24,WUHU21623XXSP,2013-08-12 23:33:00,
2013-08-12 16:38:00,84.7,59.8,30.02,West,270,0.0,0.0,43,0.00,,,5.24,WUHU21623XXSP,2013-08-12 23:38:00,
2013-08-12 16:43:00,84.2,58.6,30.01,NNW,337,0.0,0.0,42,0.00,,,5.24,WUHU21623XXSP,2013-08-12 23:43:00,
2013-08-12 16:48:00,83.7,58.8,30.02,South,180,0.0,0.0,43,0.00,,,5.24,WUHU21623XXSP,2013-08-12 23:48:00,
2013-08-12 16:53:00,83.5,59.2,30.02,SW,225,0.0,0.0,44,0.00,,,5.24,WUHU21623XXSP,2013-08-12 23:53:00,
2013-08-12 16:58:00,83.7,58.8,30.02,WNW,292,0.0,0.0,43,0.00,,,5.24,WUHU21623XXSP,2013-08-12 23:58:00,
2013-08-12 17:03:00,83.5,59.2,30.02,SE,135,0.0,0.0,44,0.00,,,5.24,WUHU21623XXSP,2013-08-13 00:03:00,
2013-08-12 17:08:00,83.3,58.4,30.01,SW,225,0.0,0.0,43,0.00,,,5.24,WUHU21623XXSP,2013-08-13 00:08:00,
2013-08-12 17:13:00,83.1,58.9,30.01,West,270,0.0,0.0,44,0.00,,,5.24,WUHU21623XXSP,2013-08-13 00:13:00,
2013-08-12 17:19:00,83.1,58.9,30.01,SSE,157,0.0,0.0,44,0.00,,,5.24,WUHU21623XXSP,2013-08-13 00:19:00,
2013-08-12 17:24:00,83.1,58.9,30.01,WSW,247,0.0,0.0,44,0.00,,,5.24,WUHU21623XXSP,2013-08-13 00:24:00,
2013-08-12 17:29:00,82.9,58.7,30.01,WNW,292,0.0,0.0,44,0.00,,,5.24,WUHU21623XXSP,2013-08-13 00:29:00,
2013-08-12 17:34:00,82.2,58.0,30.01,WNW,292,0.0,0.0,44,0.00,,,5.24,WUHU21623XXSP,2013-08-13 00:34:00,
2013-08-12 17:39:00,82.0,57.9,30.01,WNW,292,0.0,0.0,44,0.00,,,5.24,WUHU21623XXSP,2013-08-13 00:39:00,
2013-08-12 17:44:00,81.3,57.8,30.01,West,270,0.0,0.0,45,0.00,,,5.24,WUHU21623XXSP,2013-08-13 00:44:00,
2013-08-12 17:49:00,81.3,57.8,30.01,West,270,0.0,0.0,45,0.00,,,5.24,WUHU21623XXSP,2013-08-13 00:49:00,
2013-08-12 17:54:00,81.0,57.5,30.01,NNW,337,0.0,0.0,45,0.00,,,5.24,WUHU21623XXSP,2013-08-13 00:54:00,
2013-08-12 17:59:00,80.4,57.0,30.01,NW,315,0.0,0.0,45,0.00,,,5.24,WUHU21623XXSP,2013-08-13 00:59:00,
2013-08-12 18:04:00,80.4,57.7,30.01,WNW,292,0.0,0.0,46,0.00,,,5.24,WUHU21623XXSP,2013-08-13 01:04:00,
2013-08-12 18:09:00,79.9,57.2,30.01,NW,315,0.0,0.0,46,0.00,,,5.24,WUHU21623XXSP,2013-08-13 01:09:00,
2013-08-12 18:14:00,79.7,57.6,30.01,SW,225,0.0,0.0,47,0.00,,,5.24,WUHU21623XXSP,2013-08-13 01:14:00,
2013-08-12 18:19:00,79.5,57.5,30.01,WNW,292,0.0,0.0,47,0.00,,,5.24,WUHU21623XXSP,2013-08-13 01:19:00,
2013-08-12 18:24:00,79.2,57.7,30.01,West,270,0.0,0.0,48,0.00,,,5.24,WUHU21623XXSP,2013-08-13 01:24:00,
2013-08-12 18:29:00,78.6,57.3,30.01,West,270,0.0,0.0,48,0.00,,,5.24,WUHU21623XXSP,2013-08-13 01:29:00,
2013-08-12 18:34:00,78.6,57.9,30.01,WNW,292,0.0,0.0,49,0.00,,,5.24,WUHU21623XXSP,2013-08-13 01:34:00,
2013-08-12 18:39:00,78.1,57.4,30.01,NW,315,0.0,0.0,49,0.00,,,5.24,WUHU21623XXSP,2013-08-13 01:39:00,
2013-08-12 18:44:00,77.7,57.7,30.01,West,270,0.0,0.0,50,0.00,,,5.24,WUHU21623XXSP,2013-08-13 01:44:00,
2013-08-12 18:49:00,77.5,57.5,30.01,West,270,0.0,0.0,50,0.00,,,5.24,WUHU21623XXSP,2013-08-13 01:49:00,
2013-08-12 18:54:00,77.2,57.7,30.01,WNW,292,0.0,0.0,51,0.00,,,5.24,WUHU21623XXSP,2013-08-13 01:54:00,
2013-08-12 18:59:00,76.6,57.2,30.01,WNW,292,0.0,0.0,51,0.00,,,5.24,WUHU21623XXSP,2013-08-13 01:59:00,
2013-08-12 19:04:00,76.3,57.4,30.01,North,0,0.0,0.0,52,0.00,,,5.24,WUHU21623XXSP,2013-08-13 02:04:00,
2013-08-12 19:09:00,75.9,57.1,30.01,NW,315,0.0,0.0,52,0.00,,,5.24,WUHU21623XXSP,2013-08-13 02:09:00,
2013-08-12 19:14:00,75.6,56.7,30.02,NW,315,0.0,0.0,52,0.00,,,5.24,WUHU21623XXSP,2013-08-13 02:14:00,
2013-08-12 19:19:00,75.0,56.7,30.01,WNW,292,0.0,0.0,53,0.00,,,5.24,WUHU21623XXSP,2013-08-13 02:19:00,
2013-08-12 19:24:00,74.5,56.2,30.02,NW,315,0.0,0.0,53,0.00,,,5.24,WUHU21623XXSP,2013-08-13 02:24:00,
2013-08-12 19:29:00,73.9,56.2,30.02,NNW,337,0.0,0.0,54,0.00,,,5.24,WUHU21623XXSP,2013-08-13 02:29:00,
2013-08-12 19:34:00,73.2,56.0,30.02,WNW,292,0.0,0.0,55,0.00,,,5.24,WUHU21623XXSP,2013-08-13 02:34:00,
2013-08-12 19:39:00,72.3,55.7,30.02,NW,315,0.0,0.0,56,0.00,,,5.24,WUHU21623XXSP,2013-08-13 02:39:00,
2013-08-12 19:44:00,71.8,55.7,30.03,West,270,0.0,0.0,57,0.00,,,5.24,WUHU21623XXSP,2013-08-13 02:44:00,
2013-08-12 19:49:00,70.9,55.4,30.03,NW,315,0.0,0.0,58,0.00,,,5.24,WUHU21623XXSP,2013-08-13 02:49:00,
2013-08-12 19:54:00,70.2,55.2,30.03,NW,315,0.0,0.0,59,0.00,,,5.24,WUHU21623XXSP,2013-08-13 02:54:00,
2013-08-12 19:59:00,69.6,55.2,30.03,NW,315,0.0,0.0,60,0.00,,,5.24,WUHU21623XXSP,2013-08-13 02:59:00,
2013-08-12 20:04:00,69.1,55.1,30.03,NW,315,0.0,0.0,61,0.00,,,5.24,WUHU21623XXSP,2013-08-13 03:04:00,
2013-08-12 20:09:00,68.5,54.6,30.03,NW,315,0.0,0.0,61,0.00,,,5.24,WUHU21623XXSP,2013-08-13 03:09:00,
2013-08-12 20:14:00,67.8,54.3,30.04,NW,315,0.0,0.0,62,0.00,,,5.24,WUHU21623XXSP,2013-08-13 03:14:00,
2013-08-12 20:19:00,67.5,54.4,30.04,NW,315,0.0,0.0,63,0.00,,,5.24,WUHU21623XXSP,2013-08-13 03:19:00,
2013-08-12 20:25:00,66.9,54.3,30.04,NNW,337,0.0,0.0,64,0.00,,,5.24,WUHU21623XXSP,2013-08-13 03:25:00,
2013-08-12 20:30:00,66.4,53.8,30.04,NNW,337,0.0,0.0,64,0.00,,,5.24,WUHU21623XXSP,2013-08-13 03:30:00,
2013-08-12 20:35:00,66.0,53.9,30.04,NNW,337,0.0,0.0,65,0.00,,,5.24,WUHU21623XXSP,2013-08-13 03:35:00,
2013-08-12 20:40:00,65.5,53.8,30.04,WNW,292,0.0,0.0,66,0.00,,,5.24,WUHU21623XXSP,2013-08-13 03:40:00,
2013-08-12 20:45:00,65.1,53.4,30.04,WNW,292,0.0,0.0,66,0.00,,,5.24,WUHU21623XXSP,2013-08-13 03:45:00,
2013-08-12 20:52:00,64.6,53.8,30.04,NNW,337,0.0,0.0,68,0.00,,,5.24,WUHU21623XXSP,2013-08-13 03:52:00,
2013-08-12 20:58:00,64.2,53.5,30.04,NNW,337,0.0,0.0,68,0.00,,,5.24,WUHU21623XXSP,2013-08-13 03:58:00,
2013-08-12 21:01:00,64.0,53.7,30.05,NNW,337,0.0,0.0,69,0.00,,,5.24,WUHU21623XXSP,2013-08-13 04:01:00,
2013-08-12 21:02:00,64.0,53.7,30.05,NNW,337,0.0,0.0,69,0.00,,,5.24,WUHU21623XXSP,2013-08-13 04:02:00,
2013-08-12 21:07:00,63.7,53.3,30.05,NW,315,0.0,0.0,69,0.00,,,5.24,WUHU21623XXSP,2013-08-13 04:07:00,
2013-08-12 21:12:00,63.5,53.2,30.06,NW,315,0.0,0.0,69,0.00,,,5.24,WUHU21623XXSP,2013-08-13 04:12:00,
2013-08-12 21:17:00,63.3,53.4,30.06,WNW,292,0.0,0.0,70,0.00,,,5.24,WUHU21623XXSP,2013-08-13 04:17:00,
2013-08-12 21:22:00,63.0,53.1,30.06,NW,315,0.0,0.0,70,0.00,,,5.24,WUHU21623XXSP,2013-08-13 04:22:00,
2013-08-12 21:27:00,62.8,53.2,30.06,NW,315,0.0,0.0,71,0.00,,,5.24,WUHU21623XXSP,2013-08-13 04:27:00,
2013-08-12 21:32:00,62.4,53.3,30.06,WNW,292,0.0,0.0,72,0.00,,,5.24,WUHU21623XXSP,2013-08-13 04:32:00,
2013-08-12 21:37:00,62.2,53.1,30.06,NW,315,0.0,0.0,72,0.00,,,5.24,WUHU21623XXSP,2013-08-13 04:37:00,
2013-08-12 21:43:00,61.9,53.1,30.06,NW,315,0.0,0.0,73,0.00,,,5.24,WUHU21623XXSP,2013-08-13 04:43:00,
2013-08-12 21:48:00,61.7,53.0,30.07,NNW,337,0.0,0.0,73,0.00,,,5.24,WUHU21623XXSP,2013-08-13 04:48:00,
2013-08-12 21:53:00,61.5,53.2,30.06,NNW,337,0.0,0.0,74,0.00,,,5.24,WUHU21623XXSP,2013-08-13 04:53:00,
2013-08-12 21:58:00,61.3,53.0,30.06,NNW,337,0.0,0.0,74,0.00,,,5.24,WUHU21623XXSP,2013-08-13 04:58:00,
2013-08-12 22:03:00,61.0,52.7,30.07,NNW,337,0.0,0.0,74,0.00,,,5.24,WUHU21623XXSP,2013-08-13 05:03:00,
2013-08-12 22:08:00,60.8,52.9,30.06,NNW,337,0.0,0.0,75,0.00,,,5.24,WUHU21623XXSP,2013-08-13 05:08:00,
2013-08-12 22:13:00,60.6,52.7,30.07,NNW,337,0.0,0.0,75,0.00,,,5.24,WUHU21623XXSP,2013-08-13 05:13:00,
2013-08-12 22:18:00,60.4,52.9,30.07,NNW,337,0.0,0.0,76,0.00,,,5.24,WUHU21623XXSP,2013-08-13 05:18:00,
2013-08-12 22:23:00,60.4,52.9,30.07,NNW,337,0.0,0.0,76,0.00,,,5.24,WUHU21623XXSP,2013-08-13 05:23:00,
2013-08-12 22:28:00,60.1,52.9,30.07,NNW,337,0.0,0.0,77,0.00,,,5.24,WUHU21623XXSP,2013-08-13 05:28:00,
2013-08-12 22:33:00,59.9,53.1,30.07,NNW,337,0.0,0.0,78,0.00,,,5.24,WUHU21623XXSP,2013-08-13 05:33:00,
2013-08-12 22:38:00,59.9,53.1,30.07,NW,315,0.0,0.0,78,0.00,,,5.24,WUHU21623XXSP,2013-08-13 05:38:00,
2013-08-12 22:43:00,59.7,52.9,30.07,NNW,337,0.0,0.0,78,0.00,,,5.24,WUHU21623XXSP,2013-08-13 05:43:00,
2013-08-12 22:48:00,59.7,53.2,30.07,NW,315,0.0,0.0,79,0.00,,,5.24,WUHU21623XXSP,2013-08-13 05:48:00,
2013-08-12 22:53:00,59.7,53.2,30.07,NW,315,0.0,0.0,79,0.00,,,5.24,WUHU21623XXSP,2013-08-13 05:53:00,
2013-08-12 22:58:00,59.5,53.1,30.07,NNW,337,0.0,0.0,79,0.00,,,5.24,WUHU21623XXSP,2013-08-13 05:58:00,
2013-08-12 23:03:00,59.5,53.4,30.08,NNW,337,0.0,0.0,80,0.00,,,5.24,WUHU21623XXSP,2013-08-13 06:03:00,
2013-08-12 23:08:00,59.4,53.2,30.08,NW,315,0.0,0.0,80,0.00,,,5.24,WUHU21623XXSP,2013-08-13 06:08:00,
2013-08-12 23:13:00,59.2,53.1,30.08,NNW,337,0.0,0.0,80,0.00,,,5.24,WUHU21623XXSP,2013-08-13 06:13:00,
2013-08-12 23:18:00,58.8,52.7,30.08,NW,315,0.0,0.0,80,0.00,,,5.24,WUHU21623XXSP,2013-08-13 06:18:00,
2013-08-12 23:23:00,58.8,52.7,30.08,NNW,337,0.0,0.0,80,0.00,,,5.24,WUHU21623XXSP,2013-08-13 06:23:00,
2013-08-12 23:28:00,58.8,52.7,30.08,NNW,337,0.0,0.0,80,0.00,,,5.24,WUHU21623XXSP,2013-08-13 06:28:00,
2013-08-12 23:33:00,58.8,52.7,30.08,NNW,337,0.0,0.0,80,0.00,,,5.24,WUHU21623XXSP,2013-08-13 06:33:00,
2013-08-12 23:38:00,58.8,52.7,30.09,NNW,337,0.0,0.0,80,0.00,,,5.24,WUHU21623XXSP,2013-08-13 06:38:00,
2013-08-12 23:43:00,58.6,52.5,30.09,NNW,337,0.0,0.0,80,0.00,,,5.24,WUHU21623XXSP,2013-08-13 06:43:00,
2013-08-12 23:48:00,58.3,52.5,30.09,NNW,337,0.0,0.0,81,0.00,,,5.24,WUHU21623XXSP,2013-08-13 06:48:00,
2013-08-12 23:53:00,58.1,52.3,30.09,NNW,337,0.0,0.0,81,0.00,,,5.24,WUHU21623XXSP,2013-08-13 06:53:00,
2013-08-12 23:58:00,57.9,52.1,30.09,NNW,337,0.0,0.0,81,0.00,,,5.24,WUHU21623XXSP,2013-08-13 06:58:00,